[[{"header":{"parameterUnit":"m.s-1","parameterCategory":1,"la1":30.2991,"la2":30.254,"lo1":-89.0895,"lo2":-89.0444,"dy":0.0017,"dx":0.0017,"nx":28,"ny":28,"refTime":"2026-02-26T03:00:00:Z","depth":0,"parameterNumber":2,"parameterNumberName":"U-component_of_WINDS"},"data":[0,0,0,0,0,0,0,0,0,0,0,0,0,0,0,0,0,0,0,0,0,0,0,0,0,0,0,0,0,0,0,0,0,0,0,0,0,0,0,0,0,0,0,0,0,0,0,0,0,0,0,0,0,0,0,0,0,0,-0.8424,-0.8424,0,-0.8444,-0.8444,-0.8445,-0.8456,-0.8456,-0.8456,-0.8456,-0.8475,-0.8475,-0.8476,0,0,0,0,0,0,0,0,0,0,0,0,0,-0.8393,-0.8394,-0.8424,-0.8424,-0.8424,-0.8444,-0.8444,-0.8445,-0.8456,-0.8456,-0.8456,-0.8456,-0.8475,-0.8475,-0.8476,0,0,0,0,0,0,0,0,0,0,0,0,0,-0.8409,-0.8394,-0.8424,-0.8433,-0.8434,-0.8444,-0.8444,-0.8445,-0.8456,-0.8456,-0.8456,-0.8456,-0.8474,-0.8475,-0.8476,-0.8478,0,0,-0.8478,-0.8478,0,0,0,0,0,0,0,0,-0.8408,-0.841,-0.8431,-0.8432,-0.8433,-0.8448,-0.844,-0.8456,-0.8456,-0.8447,-0.8456,-0.8456,-0.8466,-0.8467,-0.8471,-0.8479,-0.848,-0.8478,-0.8478,-0.8479,-0.8479,0,0,0,0,0,0,0,-0.8407,-0.8409,-0.8432,-0.8431,-0.8433,-0.8435,-0.8437,-0.8443,-0.8456,-0.8448,-0.8449,-0.8451,-0.8466,-0.847,-0.8471,-0.848,-0.8478,-0.8478,-0.8479,-0.8479,-0.8492,-0.8492,0,0,0,0,0,0,-0.8405,-0.8408,-0.8431,-0.8432,-0.8421,-0.8435,-0.8438,-0.8443,-0.8456,-0.8458,-0.8451,-0.8452,-0.8469,-0.847,-0.8472,-0.8476,-0.8479,-0.8479,-0.848,-0.8492,-0.8492,-0.8492,0,0,0,0,0,0,-0.8404,-0.8407,-0.843,-0.8421,-0.8424,-0.8436,-0.8441,-0.8443,-0.8447,-0.8458,-0.846,-0.8453,-0.8469,-0.8471,-0.8477,-0.8476,-0.848,-0.848,-0.8492,-0.8492,-0.8492,-0.8483,0,0,0,0,0,0,-0.8403,-0.8407,-0.8408,-0.8421,-0.8424,-0.8436,-0.8441,-0.8444,-0.8448,-0.8449,-0.846,-0.8462,-0.8469,-0.8476,-0.8477,-0.8477,-0.8481,-0.8492,-0.8492,-0.8492,-0.8484,-0.8483,-0.8482,0,0,0,0,0,-0.8402,-0.8405,-0.8408,-0.8411,-0.8427,-0.8436,-0.8438,-0.8446,-0.8448,-0.845,-0.8457,-0.8462,-0.8476,-0.8476,-0.8478,-0.8478,-0.8492,-0.8492,-0.8492,-0.8484,-0.8483,-0.8482,0,0,0,0,0,0,-0.8391,-0.8406,-0.8411,-0.8417,-0.8425,-0.8438,-0.844,-0.8445,-0.8452,-0.8452,-0.8462,-0.8464,-0.8469,-0.8474,-0.8474,-0.8482,-0.8485,-0.8485,-0.8478,-0.8477,-0.8477,-0.8475,-0.8481,0,0,0,0,0,-0.8389,-0.8396,-0.8409,-0.8413,-0.8417,-0.8428,-0.8432,-0.8438,-0.8446,-0.8449,-0.8457,-0.8464,-0.847,-0.8474,-0.848,-0.8485,-0.8487,-0.8486,-0.8485,-0.8484,-0.8484,-0.8487,-0.8486,-0.8492,-0.8492,-0.8492,0,0,-0.8386,-0.8395,-0.8399,-0.8411,-0.8418,-0.8424,-0.843,-0.8437,-0.8441,-0.845,-0.8456,-0.8462,-0.8471,-0.8476,-0.8478,-0.848,-0.8483,-0.8484,-0.8484,-0.8484,-0.8487,-0.8486,-0.8486,-0.8491,-0.8491,-0.8491,0,0,-0.8383,-0.8391,-0.8395,-0.8402,-0.8413,-0.842,-0.8421,-0.8432,-0.8437,-0.8443,-0.845,-0.8455,-0.8466,-0.8472,-0.8476,-0.8475,-0.8479,-0.8477,-0.8473,-0.8475,-0.8475,-0.8474,-0.8474,-0.8473,-0.8477,-0.8477,-0.8477,0,-0.8377,-0.8387,-0.8397,-0.8403,-0.8408,-0.8417,-0.8421,-0.8427,-0.8439,-0.8442,-0.8444,-0.8457,-0.8464,-0.847,-0.847,-0.8473,-0.8474,-0.8475,-0.8474,-0.8474,-0.8474,-0.8473,-0.8473,-0.8476,-0.8476,-0.8476,-0.8476,0,-0.8379,-0.8386,-0.8388,-0.84,-0.8406,-0.8411,-0.842,-0.8425,-0.843,-0.8436,-0.8443,-0.8451,-0.8459,-0.8461,-0.8466,-0.8468,-0.8469,-0.8472,-0.8476,-0.8473,-0.8472,-0.8472,-0.8476,-0.8476,-0.8476,-0.8476,0,0,-0.8369,-0.8387,-0.8387,-0.8393,-0.8405,-0.841,-0.8415,-0.8424,-0.8427,-0.8435,-0.8439,-0.8448,-0.8451,-0.8456,-0.8462,-0.8463,-0.8462,-0.8467,-0.8467,-0.8465,-0.8464,-0.8461,-0.8461,-0.8465,-0.8465,-0.8465,-0.8463,0,-0.8368,-0.8378,-0.8387,-0.8394,-0.84,-0.8409,-0.8414,-0.8421,-0.8427,-0.8433,-0.8439,-0.8445,-0.8449,-0.8452,-0.8455,-0.8462,-0.8462,-0.8462,-0.8468,-0.8469,-0.8466,-0.8461,-0.8458,-0.8456,-0.8463,-0.8463,-0.8463,0,-0.8367,-0.8375,-0.8383,-0.8395,-0.8398,-0.8402,-0.841,-0.8416,-0.8424,-0.8428,-0.8434,-0.844,-0.8445,-0.8448,-0.8455,-0.8455,-0.8458,-0.8462,-0.8462,-0.8462,-0.8466,-0.8461,-0.8456,-0.8455,-0.8463,-0.8463,-0.8463,0,-0.8359,-0.8372,-0.8378,-0.8383,-0.8396,-0.8399,-0.8404,-0.8413,-0.8418,-0.8425,-0.8428,-0.8435,-0.8439,-0.8444,-0.8452,-0.8453,-0.8458,-0.8461,-0.8461,-0.8461,-0.8461,-0.8461,-0.8456,-0.8464,-0.8464,-0.8464,-0.8464,0,-0.8356,-0.8361,-0.8375,-0.8379,-0.8384,-0.8393,-0.8398,-0.8404,-0.8412,-0.8416,-0.8424,-0.8428,-0.8438,-0.8443,-0.8449,-0.8454,-0.8455,-0.8459,-0.846,-0.8458,-0.8457,-0.846,-0.846,-0.8464,-0.8464,-0.8464,-0.8464,0,-0.8348,-0.8358,-0.8365,-0.8378,-0.8381,-0.8384,-0.8394,-0.8398,-0.8405,-0.841,-0.8412,-0.8423,-0.8429,-0.8437,-0.8446,-0.845,-0.8454,-0.8456,-0.8451,-0.8452,-0.8451,-0.8451,-0.8447,-0.8447,-0.8455,-0.8454,-0.8454,0,-0.8345,-0.8349,-0.8362,-0.8366,-0.8372,-0.8378,-0.8383,-0.8393,-0.8397,-0.8407,-0.841,-0.8417,-0.8423,-0.8433,-0.844,-0.8447,-0.8449,-0.8448,-0.845,-0.8448,-0.8449,-0.8449,-0.8449,-0.8447,-0.8447,-0.8447,-0.8446,0,-0.834,-0.8345,-0.8352,-0.836,-0.8366,-0.8373,-0.8381,-0.8383,-0.8394,-0.8399,-0.8406,-0.8411,-0.842,-0.8427,-0.8434,-0.8439,-0.8444,-0.8446,-0.8446,-0.8443,-0.844,-0.8442,-0.8449,-0.8446,-0.8446,-0.8446,-0.8446,-0.8446,-0.8334,-0.8338,-0.8348,-0.8355,-0.8362,-0.8369,-0.8373,-0.838,-0.8386,-0.8395,-0.84,-0.8407,-0.8415,-0.8426,-0.8431,-0.8436,-0.8438,-0.8438,-0.8438,-0.8438,-0.8437,-0.844,-0.8437,-0.8437,-0.8437,-0.8437,-0.8437,0,-0.8329,-0.8336,-0.8343,-0.8353,-0.8359,-0.8364,-0.8372,-0.8377,-0.8383,-0.839,-0.8396,-0.8404,-0.8411,-0.8419,-0.8426,-0.8428,-0.8431,-0.843,-0.8429,-0.843,-0.8435,-0.8434,-0.8427,-0.8427,-0.8427,-0.8427,-0.8427,-0.8427,-0.8327,-0.8333,-0.8339,-0.8348,-0.8355,-0.8362,-0.8366,-0.8372,-0.8379,-0.8387,-0.8393,-0.8399,-0.8406,-0.8414,-0.842,-0.8422,-0.8424,-0.8422,-0.8425,-0.8429,-0.843,-0.8431,-0.843,-0.8423,-0.8423,-0.842,-0.842,-0.842]},{"header":{"parameterUnit":"m.s-1","parameterCategory":1,"la1":30.2991,"la2":30.254,"lo1":-89.0895,"lo2":-89.0444,"dy":0.0017,"dx":0.0017,"nx":28,"ny":28,"refTime":"2026-02-26T03:00:00:Z","depth":0,"parameterNumber":3,"parameterNumberName":"V-component_of_WINDS"},"data":[0,0,0,0,0,0,0,0,0,0,0,0,0,0,0,0,0,0,0,0,0,0,0,0,0,0,0,0,0,0,0,0,0,0,0,0,0,0,0,0,0,0,0,0,0,0,0,0,0,0,0,0,0,0,0,0,0,0,5.6203,5.6203,0,5.6173,5.6172,5.6172,5.6164,5.6164,5.6165,5.6165,5.6128,5.6127,5.6126,0,0,0,0,0,0,0,0,0,0,0,0,0,5.625,5.6249,5.6203,5.6203,5.6203,5.6173,5.6172,5.6172,5.6164,5.6164,5.6165,5.6165,5.6128,5.6127,5.6126,0,0,0,0,0,0,0,0,0,0,0,0,0,5.6225,5.6249,5.6203,5.6195,5.6194,5.6173,5.6172,5.6172,5.6164,5.6164,5.6165,5.6165,5.6129,5.6127,5.6125,5.6108,0,0,5.612,5.6119,0,0,0,0,0,0,0,0,5.6227,5.6224,5.6197,5.6196,5.6195,5.6173,5.6175,5.615,5.6164,5.6175,5.6165,5.6165,5.6142,5.6139,5.6133,5.6107,5.6105,5.612,5.6119,5.6118,5.6118,0,0,0,0,0,0,0,5.6229,5.6225,5.6191,5.6196,5.6195,5.6191,5.6188,5.6171,5.6157,5.6174,5.6174,5.6171,5.6142,5.6135,5.6132,5.6105,5.612,5.6118,5.6117,5.6117,5.6062,5.6062,0,0,0,0,0,0,5.6232,5.6226,5.6192,5.619,5.6212,5.619,5.6187,5.6179,5.6158,5.6155,5.617,5.617,5.6137,5.6134,5.6131,5.6109,5.6118,5.6117,5.6115,5.6063,5.6062,5.6062,0,0,0,0,0,0,5.6233,5.6229,5.6193,5.6208,5.6203,5.6189,5.6181,5.6179,5.6172,5.6155,5.6152,5.6166,5.6138,5.6133,5.6114,5.6108,5.6116,5.6114,5.6063,5.6063,5.6062,5.6067,0,0,0,0,0,0,5.6235,5.623,5.6225,5.6208,5.6203,5.6179,5.618,5.6178,5.6169,5.6169,5.615,5.6147,5.6137,5.6117,5.6113,5.6106,5.6113,5.6064,5.6063,5.6062,5.6067,5.6066,5.6066,0,0,0,0,0,5.6237,5.6226,5.6224,5.622,5.6196,5.6179,5.6175,5.6167,5.6169,5.6162,5.6151,5.6147,5.6109,5.6115,5.611,5.6103,5.6064,5.6063,5.6062,5.6067,5.6067,5.6066,0,0,0,0,0,0,5.624,5.6224,5.6222,5.6206,5.6194,5.6178,5.617,5.6166,5.6152,5.6152,5.614,5.6136,5.6118,5.6108,5.6115,5.6085,5.6086,5.6084,5.6092,5.6091,5.609,5.6093,5.6111,0,0,0,0,0,5.6239,5.6229,5.6214,5.6201,5.6196,5.6184,5.6176,5.617,5.6157,5.6151,5.6139,5.6124,5.6109,5.6099,5.6085,5.6065,5.6061,5.6058,5.6057,5.6056,5.6055,5.6044,5.6042,5.6059,5.6059,5.6059,0,0,5.6237,5.6227,5.622,5.6202,5.6192,5.618,5.6179,5.6166,5.6157,5.6149,5.6131,5.6121,5.6104,5.6085,5.6076,5.6076,5.6049,5.6055,5.6055,5.6054,5.6043,5.6041,5.604,5.6058,5.6058,5.6058,0,0,5.6227,5.6218,5.6207,5.6197,5.6183,5.6175,5.6173,5.6157,5.6151,5.6133,5.6127,5.6114,5.6088,5.6076,5.6067,5.6052,5.6047,5.6047,5.6044,5.6033,5.6032,5.6031,5.6025,5.6024,5.6046,5.6046,5.6046,0,5.6226,5.6209,5.6201,5.6189,5.618,5.6174,5.6162,5.6152,5.6133,5.6127,5.6128,5.6096,5.6083,5.6062,5.6058,5.6051,5.6046,5.605,5.6033,5.6032,5.603,5.6025,5.6023,5.6046,5.6046,5.6046,5.6046,0,5.6207,5.6196,5.6188,5.6172,5.6162,5.615,5.6139,5.613,5.6125,5.6116,5.6098,5.6083,5.6065,5.606,5.6054,5.6037,5.6037,5.6036,5.6037,5.6029,5.6024,5.6022,5.6046,5.6046,5.6046,5.6046,0,0,5.6199,5.6179,5.6177,5.6169,5.6153,5.6143,5.6129,5.6114,5.6106,5.6093,5.6081,5.6059,5.6058,5.6047,5.604,5.603,5.6019,5.603,5.6029,5.6028,5.5999,5.6001,5.5999,5.6016,5.6016,5.6015,5.6001,0,5.6187,5.6166,5.6158,5.6139,5.6128,5.6122,5.611,5.6098,5.6089,5.6077,5.6066,5.6051,5.6051,5.6044,5.6035,5.6023,5.6013,5.6024,5.6003,5.6003,5.6009,5.5996,5.5998,5.5985,5.5999,5.5998,5.5998,0,5.6171,5.6159,5.614,5.6125,5.612,5.611,5.6095,5.6084,5.6069,5.6063,5.6052,5.6045,5.6029,5.6032,5.6009,5.6016,5.6007,5.6,5.5999,5.5997,5.6,5.5994,5.5981,5.5979,5.5995,5.5995,5.5995,0,5.6167,5.6146,5.6132,5.6126,5.6108,5.6101,5.6093,5.6079,5.607,5.6056,5.605,5.6034,5.6025,5.6012,5.6,5.6003,5.5978,5.598,5.5972,5.5972,5.5968,5.5968,5.5953,5.5961,5.5961,5.5961,5.5961,0,5.6155,5.6143,5.6131,5.6122,5.6108,5.6099,5.6085,5.6076,5.6064,5.6052,5.6045,5.6034,5.6019,5.6006,5.5996,5.5979,5.5974,5.5968,5.5966,5.5969,5.597,5.5964,5.5964,5.5961,5.5961,5.5961,5.5961,0,5.6148,5.614,5.6124,5.6109,5.6105,5.6096,5.6082,5.6072,5.6064,5.6049,5.6045,5.603,5.6014,5.6001,5.5979,5.5973,5.5954,5.5951,5.596,5.5959,5.5952,5.5953,5.5933,5.5929,5.594,5.594,5.5939,0,5.6142,5.6133,5.6117,5.611,5.6103,5.6091,5.6082,5.6072,5.6063,5.6046,5.6038,5.6021,5.6008,5.5982,5.5968,5.5951,5.5948,5.5942,5.5945,5.5949,5.5948,5.5949,5.5948,5.5941,5.5941,5.5941,5.5941,0,5.613,5.6126,5.6115,5.6102,5.6093,5.6081,5.607,5.6064,5.6051,5.6041,5.6025,5.6015,5.5993,5.5977,5.5958,5.5948,5.5942,5.594,5.5938,5.5941,5.5947,5.5944,5.5959,5.5941,5.5941,5.5941,5.5941,5.5941,5.6123,5.6115,5.6104,5.6091,5.6082,5.6071,5.6062,5.6053,5.604,5.6023,5.6017,5.6001,5.5986,5.5961,5.595,5.5936,5.5936,5.5932,5.5931,5.593,5.5931,5.5949,5.5933,5.5933,5.5933,5.5933,5.5933,0,5.6112,5.6104,5.6093,5.6078,5.6068,5.6065,5.6052,5.6043,5.603,5.6017,5.6004,5.5986,5.597,5.5955,5.5938,5.5929,5.5926,5.5925,5.5926,5.5923,5.5932,5.5936,5.5928,5.5928,5.5928,5.5928,5.5928,5.5928,5.6105,5.6092,5.6086,5.6067,5.6059,5.6045,5.6038,5.6027,5.6017,5.5998,5.5985,5.5976,5.5962,5.5944,5.5929,5.5924,5.5918,5.5918,5.5913,5.5922,5.5923,5.5923,5.5927,5.5917,5.5917,5.5905,5.5905,5.5905]}]]